Los Alamos, NM

3:44 PM MDT on May 24, 2017 (GMT -0600)
Los Alamos

Weather History for KLAM - March, 2013

Change the Weather History Date:

Tuesday, March 12, 2013

  Actual Average Record
Temperature  
Mean Temperature 46 °F -  
Max Temperature 56 °F 48 °F 70 °F (1989)
Min Temperature 35 °F 26 °F 9 °F (1948)
Degree Days  
Heating Degree Days 20    
Moisture  
Dew Point 21 °F    
Average Humidity 40    
Maximum Humidity 59    
Minimum Humidity 24    
Precipitation  
Precipitation 0.00 in - - ()
Sea Level Pressure  
Sea Level Pressure 30.22 in    
Wind  
Wind Speed 5 mph (South)    
Max Wind Speed 14 mph    
Max Gust Speed 21 mph    
Visibility 10 miles    
Events      
Averages and records for this station are not official NWS values.
T = Trace of Precipitation, MM = Missing Value Source: NWS Daily Summary

Daily Weather History Graph

Daily Weather History Graph

Search for Another Location

Airport or City:

Trip Planner

Search our weather history database for the weather conditions in past years. The results will help you decide how hot, cold, wet, or windy it might be!

Date:

Astronomy

Mar. 12, 2013 Rise Set
Actual Time 7:19 AM MDT 7:10 PM MDT
Civil Twilight 6:54 AM MDT 7:35 PM MDT
Nautical Twilight 6:24 AM MDT 8:05 PM MDT
Astronomical Twilight 5:54 AM MDT 8:35 PM MDT
Moon 7:30 AM MDT (3/12) 8:24 PM MDT (3/12)
Length of Visible Light 12h 41m
Length of Day
11h 50m
New Moon, 1% of the Moon is Illuminated
Mar 12
New Moon
Mar 19
First Quarter
Mar 27
Full
Apr 2
Last Quarter
Apr 10
New

Hourly Weather History & Observations

Time (MDT) Temp. Windchill Dew Point Humidity Pressure Visibility Wind Dir Wind Speed Gust Speed Precip Events Conditions
12:15 AM 43.7 °F 38.6 °F 20.3 °F 39% 30.13 in 10.0 mi West 9.2 mph - N/A   Clear
12:35 AM 43.0 °F 41.3 °F 20.8 °F 41% 30.13 in 10.0 mi North 3.5 mph - N/A   Clear
12:55 AM 42.6 °F 40.9 °F 19.9 °F 40% 30.13 in 10.0 mi ESE 3.5 mph - N/A   Clear
1:15 AM 41.9 °F - 19.4 °F 41% 30.13 in 10.0 mi Calm Calm - N/A   Clear
1:35 AM 41.5 °F - 20.1 °F 42% 30.13 in 10.0 mi Calm Calm - N/A   Clear
1:55 AM 40.3 °F 37.1 °F 20.8 °F 46% 30.13 in 10.0 mi ESE 4.6 mph - N/A   Clear
2:15 AM 39.6 °F - 21.0 °F 48% 30.13 in 10.0 mi Calm Calm - N/A   Clear
2:35 AM 38.5 °F - 21.2 °F 50% 30.13 in 10.0 mi Calm Calm - N/A   Clear
2:55 AM 38.5 °F 35.0 °F 22.1 °F 52% 30.13 in 10.0 mi ESE 4.6 mph - N/A   Clear
3:15 AM 38.1 °F 35.7 °F 22.1 °F 53% 30.12 in 10.0 mi SSE 3.5 mph - N/A   Clear
3:35 AM 36.9 °F 34.3 °F 22.8 °F 57% 30.13 in 10.0 mi SSE 3.5 mph - N/A   Clear
3:55 AM 36.9 °F 34.3 °F 23.0 °F 57% 30.14 in 10.0 mi SE 3.5 mph - N/A   Clear
4:15 AM 36.5 °F - 23.0 °F 58% 30.14 in 10.0 mi Calm Calm - N/A   Clear
4:35 AM 36.0 °F - 23.0 °F 59% 30.15 in 10.0 mi Calm Calm - N/A   Clear
4:55 AM 37.0 °F - 23.0 °F 57% 30.15 in 10.0 mi Calm Calm - N/A   Clear
5:15 AM 36.9 °F - 23.0 °F 57% 30.16 in 10.0 mi Calm Calm - N/A   Clear
5:35 AM 37.6 °F - 22.8 °F 55% 30.16 in 10.0 mi Calm Calm - N/A   Clear
5:55 AM 36.9 °F - 22.8 °F 57% 30.17 in 10.0 mi Calm Calm - N/A   Clear
6:15 AM 36.1 °F 33.5 °F 22.6 °F 58% 30.18 in 10.0 mi SSW 3.5 mph - N/A   Clear
6:35 AM 36.0 °F 32.1 °F 22.6 °F 58% 30.18 in 10.0 mi SSW 4.6 mph - N/A   Clear
6:55 AM 37.4 °F - 22.6 °F 55% 30.19 in 10.0 mi Calm Calm - N/A   Clear
7:15 AM 36.9 °F - 22.1 °F 55% 30.19 in 10.0 mi Calm Calm - N/A   Clear
7:35 AM 36.3 °F 33.7 °F 22.1 °F 56% 30.20 in 10.0 mi SSW 3.5 mph - N/A   Clear
7:55 AM 35.8 °F 30.1 °F 22.8 °F 59% 30.21 in 10.0 mi SSW 6.9 mph - N/A   Clear
8:15 AM 36.1 °F 32.3 °F 23.2 °F 59% 30.22 in 10.0 mi SSW 4.6 mph - N/A   Clear
8:35 AM 37.0 °F 33.3 °F 23.5 °F 58% 30.23 in 10.0 mi South 4.6 mph - N/A   Clear
8:55 AM 38.1 °F - 23.7 °F 56% 30.25 in 10.0 mi Calm Calm - N/A   Clear
9:15 AM 38.7 °F - 23.9 °F 55% 30.25 in 10.0 mi Calm Calm - N/A   Clear
9:35 AM 40.5 °F 37.3 °F 23.9 °F 52% 30.25 in 10.0 mi SSE 4.6 mph - N/A   Clear
9:55 AM 41.5 °F 38.6 °F 23.5 °F 49% 30.25 in 10.0 mi SSE 4.6 mph - N/A   Clear
10:15 AM 42.8 °F 39.3 °F 23.0 °F 46% 30.25 in 10.0 mi SE 5.8 mph - N/A   Clear
10:35 AM 43.9 °F 42.3 °F 22.6 °F 43% 30.26 in 10.0 mi SE 3.5 mph - N/A   Clear
10:55 AM 44.8 °F 42.4 °F 22.6 °F 42% 30.27 in 10.0 mi ENE 4.6 mph - N/A   Clear
11:15 AM 45.9 °F 43.6 °F 23.2 °F 41% 30.28 in 10.0 mi NE 4.6 mph - N/A   Clear
11:35 AM 46.2 °F 42.7 °F 21.4 °F 37% 30.28 in 10.0 mi South 6.9 mph - N/A   Clear
11:55 AM 47.1 °F - 21.4 °F 36% 30.28 in 10.0 mi ESE 6.9 mph - N/A   Clear
12:15 PM 48.9 °F - 20.8 °F 33% 30.27 in 10.0 mi ESE 6.9 mph - N/A   Clear
12:35 PM 48.4 °F - 21.2 °F 34% 30.27 in 10.0 mi South 9.2 mph 16.1 mph N/A   Clear
12:55 PM 49.5 °F - 20.8 °F 32% 30.26 in 10.0 mi SSE 8.1 mph - N/A   Clear
1:15 PM 50.2 °F - 20.1 °F 31% 30.25 in 10.0 mi SE 8.1 mph 16.1 mph N/A   Clear
1:35 PM 51.1 °F - 20.3 °F 30% 30.25 in 10.0 mi South 10.4 mph - N/A   Clear
1:55 PM 51.3 °F - 20.3 °F 30% 30.26 in 10.0 mi SE 10.4 mph - N/A   Clear
2:15 PM 52.2 °F - 20.7 °F 29% 30.25 in 10.0 mi South 6.9 mph - N/A   Clear
2:35 PM 52.5 °F - 19.9 °F 28% 30.23 in 10.0 mi SE 10.4 mph 16.1 mph N/A   Clear
2:55 PM 53.1 °F - 19.9 °F 27% 30.22 in 10.0 mi SE 9.2 mph - N/A   Clear
3:15 PM 54.7 °F - 20.5 °F 26% 30.20 in 10.0 mi SSW 10.4 mph - N/A   Clear
3:35 PM 54.5 °F - 20.3 °F 26% 30.21 in 10.0 mi SSW 10.4 mph - N/A   Clear
3:55 PM 55.0 °F - 20.1 °F 26% 30.22 in 10.0 mi South 11.5 mph - N/A   Clear
4:15 PM 54.7 °F - 20.3 °F 26% 30.22 in 10.0 mi South 6.9 mph - N/A   Clear
4:35 PM 55.6 °F - 20.3 °F 25% 30.21 in 10.0 mi South 5.8 mph - N/A   Clear
4:55 PM 55.8 °F - 20.3 °F 25% 30.22 in 10.0 mi SSE 5.8 mph - N/A   Clear
5:15 PM 56.1 °F - 20.1 °F 25% 30.22 in 10.0 mi SE 5.8 mph - N/A   Clear
5:35 PM 55.9 °F - 20.1 °F 25% 30.21 in 10.0 mi SE 3.5 mph - N/A   Clear
5:55 PM 56.7 °F - 19.9 °F 24% 30.21 in 10.0 mi SSE 5.8 mph - N/A   Clear
6:15 PM 56.3 °F - 19.9 °F 24% 30.22 in 10.0 mi Calm Calm - N/A   Clear
6:35 PM 56.3 °F - 19.9 °F 24% 30.23 in 10.0 mi Calm Calm - N/A   Clear
6:55 PM 55.6 °F - 19.6 °F 25% 30.24 in 10.0 mi Calm Calm - N/A   Clear
7:15 PM 54.0 °F - 19.9 °F 26% 30.25 in 10.0 mi Calm Calm - N/A   Clear
7:35 PM 54.0 °F - 19.4 °F 26% 30.25 in 10.0 mi Calm Calm - N/A   Clear
7:55 PM 52.2 °F - 21.0 °F 30% 30.26 in 10.0 mi West 11.5 mph - N/A   Clear
8:15 PM 52.2 °F - 19.9 °F 28% 30.27 in 10.0 mi West 13.8 mph - N/A   Clear
8:35 PM 51.8 °F - 19.9 °F 29% 30.28 in 10.0 mi WSW 9.2 mph - N/A   Clear
8:55 PM 50.9 °F - 20.1 °F 30% 30.29 in 10.0 mi West 11.5 mph 17.3 mph N/A   Clear
9:15 PM 50.7 °F - 20.3 °F 30% 30.29 in 10.0 mi West 12.7 mph 20.7 mph N/A   Clear
9:35 PM 50.5 °F - 20.3 °F 30% 30.29 in 10.0 mi West 13.8 mph - N/A   Clear
9:55 PM 50.2 °F - 20.3 °F 31% 30.30 in 10.0 mi West 10.4 mph 17.3 mph N/A   Clear
10:15 PM 49.1 °F - 20.7 °F 33% 30.31 in 10.0 mi ESE 8.1 mph - N/A   Clear
10:35 PM 46.8 °F - 22.1 °F 38% 30.33 in 10.0 mi SSE 6.9 mph - N/A   Clear
10:55 PM 44.6 °F 40.2 °F 23.9 °F 44% 30.33 in 10.0 mi South 8.1 mph - N/A   Clear
11:55 PM 41.9 °F 37.5 °F 24.3 °F 50% 30.33 in 10.0 mi SSW 6.9 mph - N/A   Clear